This demonstration page uses our WeatherBlox Daily Observations layout. Learn more.

Left ArrowRight Arrow

39.08367, -84.50855

Hourly Observations for March 29, 2016

Temp ( °F °C ) Dew Point ( °F °C ) Humidity (%) Winds ( mph kmh ) Pressure ( in mb ) Visibility ( mi km ) Precip ( " mm )
12:53 am 00:53 Cloudy 47 8.3 36 2.2 66 66 N 9 15 30.2 1023 10 16.0934 N/A
1:53 am 01:53 Cloudy 45 7.2 36 2.2 71 71 N 5 7 30.21 1023 10 16.0934 N/A
2:53 am 02:53 Clear 42 5.6 35 1.7 76 76 N 5 7 30.21 1023 10 16.0934 N/A
3:53 am 03:53 Clear 42 5.6 35 1.7 76 76 N 9 15 30.22 1023 10 16.0934 N/A
4:53 am 04:53 Clear 39 3.9 33 0.6 79 79 NNW 6 9 30.23 1024 10 16.0934 N/A
5:53 am 05:53 Clear 37 2.8 33 0.6 86 86 N N/A 30.26 1025 10 16.0934 N/A
6:53 am 06:53 Clear 36 2.2 33 0.6 89 89 N N/A 30.28 1025 10 16.0934 N/A
7:53 am 07:53 Sunny 36 2.2 34 1.1 93 93 NE 3 6 30.3 1026 10 16.0934 N/A
8:53 am 08:53 Sunny 40 4.4 35 1.7 83 83 NE 7 11 30.32 1027 10 16.0934 N/A
9:53 am 09:53 Sunny 45 7.2 37 2.8 74 74 NNE 7 11 30.34 1027 10 16.0934 N/A
10:53 am 10:53 Sunny 48 8.9 34 1.1 58 58 NE 8 13 30.35 1028 10 16.0934 N/A
11:53 am 11:53 Sunny 52 11.1 35 1.7 53 53 NNE 10 17 30.35 1028 10 16.0934 N/A
12:53 pm 12:53 Sunny 54 12.2 34 1.1 47 47 NNE 13 20 30.33 1027 10 16.0934 N/A
1:53 pm 13:53 Sunny 55 12.8 30 -1.1 38 38 NE 13 20 30.31 1026 10 16.0934 N/A
2:53 pm 14:53 Sunny 55 12.8 30 -1.1 38 38 NE 12 19 30.3 1026 10 16.0934 N/A
3:53 pm 15:53 Sunny 57 13.9 33 0.6 41 41 NE 6 9 30.27 1025 10 16.0934 N/A
4:53 pm 16:53 Sunny 57 13.9 30 -1.1 36 36 E 7 11 30.26 1025 10 16.0934 N/A
5:53 pm 17:53 Sunny 56 13.3 30 -1.1 37 37 VRB 6 9 30.26 1025 10 16.0934 N/A
6:53 pm 18:53 Sunny 55 12.8 30 -1.1 38 38 ENE 8 13 30.24 1024 10 16.0934 N/A
7:53 pm 19:53 Sunny 52 11.1 28 -2.2 40 40 NE 6 9 30.24 1024 10 16.0934 N/A
8:53 pm 20:53 Clear 46 7.8 37 2.8 71 71 N N/A 30.24 1024 10 16.0934 N/A
9:53 pm 21:53 Clear 46 7.8 32 undefined 58 58 N 5 7 30.24 1024 10 16.0934 N/A
10:53 pm 22:53 Clear 41 5 35 1.7 79 79 N N/A 30.24 1024 10 16.0934 N/A
11:53 pm 23:53 Clear 39 3.9 36 2.2 89 89 N N/A 30.23 1024 10 16.0934 N/A

Powered by AerisWeather